STARLINK-32769, 62602

Orbit data source: Space-Track

STARLINK-32769, 62602 is a payload satellite owned by SpaceX/Seattle (US) in LEO that was launched on Mon, 13 Jan 2025 UTC via an FALCON 9 launch vehicle from the Air Force Eastern Test Range (AFETR). Payload-class satellites include a variety of spacecraft equipped with specific instruments for various scientific and technological missions. These include communications satellites like Starlink; space stations such as the ISS; scientific satellites like the Hubble; Earth observation satellites from companies like Planet Labs, Umbra, and HawkEye 360; GPS; miniature CubeSats for education and research; and military/defense satellites.

Loading next visibility...
Identifier
62602, 2025-008R
Orbit
LEO
Country
Flag of USUS
Related business
Manufacturer
SpaceX/Seattle
Mission
Operational Commercial Communications
Bus & Motor
STARLINK V2M, Unknown motor
Mass
730 kg wet, ~700 kg dry
Launch date (UTC)
2025-01-13 (2 years ago)
Launch vehicle
FALCON 9
Launch site
Air Force Eastern Test Range (AFETR)
Object type
Payload
Rocket body
Debris
Shape & HBR
Box + 2 Pan, 17.7 m
Radar Cross Section
33.884 m², Large (>1 m²)

Expand to show TLE details & history
Last TLE update: 7 hours ago

TLE from 7 hours ago
0 STARLINK-32769
1 62602U 25008R   26236.52446965  .00030813  00000-0  11233-2 0  9998
2 62602  42.9969  49.9744 0002839 148.4954 211.6068 15.27614464 91296
Epoch: 2026-08-24T12:35Z
TLE epoch observation values (Epoch: 2026-08-24T12:35:14.177Z)
Latitude
-0.00003°
Longitude
-111.63964°
Altitude
484.38 km
Speed
7.624 km/s
True Right ascension
03h 19m 53s
True Declination
0° 00' 00"
Sunlit
Object was in daylight at epoch
Visualization orbit readout
Latitude
Unknown
Longitude
Unknown
Altitude
Unknown
Speed
Unknown
Apparent Right ascension
Unknown
Apparent Declination
Unknown
Sunlit
N/A
Visualization observer readout
Local Sidereal Time
10:29:21
Azimuth
Unknown
Elevation
Unknown
Doppler factor
Unknown
Orbital elements
Apogee altitude
486.84 km
Perigee altitude
482.943 km
Semi-major axis
6,863.029 km
Eccentricity
0.00028
Inclination
42.9969°
RAAN
49.9744°
Arg. of periapsis
148.4954°
True anomaly
211.58976°
Mean anomaly
211.6068°
Eccentric anomaly
211.59828°
Mean motion
3.81742 °/min
Orbital period
94.3 mins
BSTAR
0.0011233
Loading maneuver chart data...
Computing Atmospheric mass density...
Loading historical data...
Loading historical data...
Loading historical data...
Loading historical data...
Loading historical data...
Loading historical data...
Loading historical data...

Documentation

Showing up to 5 results
|